EW2690 Weather Reports


Display with metric or nautical units.
time (UTC)temp
F
wind
direction
speed
MPH
gust
MPH
rain 1hr
in
rain 24hr
in
rain mn
in
humidity
%
barometer
mb
20260509190355 69 254 8.0 15.0 0.00 0.04 0.00 59 1014.5
20260509190047 69 219 8.0 14.0 0.00 0.04 0.00 57 1014.5
20260509183021 69 273 7.0 13.0 0.00 0.04 0.00 60 1014.7
20260509180336 68 238 6.0 11.0 0.00 0.04 0.00 61 1015.0
20260509180018 68 197 5.0 12.0 0.00 0.04 0.00 62 1015.0
20260509173012 67 243 7.0 17.0 0.00 0.04 0.00 62 1015.2
20260509170345 67 202 4.0 13.0 0.00 0.04 0.00 66 1015.4
20260509170020 67 265 7.0 13.0 0.00 0.04 0.00 65 1015.5
20260509163042 65 194 6.0 9.0 0.00 0.04 0.00 73 1015.7
20260509160317 62 339 3.0 8.0 0.00 0.04 0.00 82 1016.3
20260509160050 61 316 2.0 9.0 0.00 0.04 0.00 83 1016.3
20260509153024 62 291 5.0 10.0 0.00 0.04 0.00 78 1016.4
20260509150429 61 184 3.0 9.0 0.00 0.04 0.00 82 1016.3
20260509150044 61 232 5.0 9.0 0.00 0.04 0.00 81 1016.4
20260509143100 59 238 4.0 10.0 0.00 0.04 0.00 85 1016.6
20260509140422 58 211 3.0 7.0 0.00 0.04 0.00 88 1016.6
20260509140058 58 274 3.0 7.0 0.00 0.04 0.00 89 1016.7
20260509133014 56 192 4.0 7.0 0.00 0.04 0.00 92 1016.6
20260509130313 56 229 3.0 6.0 0.00 0.04 0.00 93 1016.7
20260509130009 56 205 1.0 6.0 0.00 0.04 0.00 93 1016.8
20260509123026 55 216 3.0 7.0 0.00 0.04 0.00 95 1017.0
20260509120404 54 155 2.0 4.0 0.00 0.04 0.00 96 1017.2
20260509120044 54 171 2.0 5.0 0.00 0.04 0.00 96 1017.2
20260509113039 53 132 1.0 3.0 0.00 0.04 0.00 96 1017.1
20260509110339 53 136 1.0 3.0 0.00 0.04 0.00 96 1017.0
20260509103015 53 181 2.0 3.0 0.00 0.04 0.00 96 1016.9
20260509100310 53 217 1.0 4.0 0.00 0.04 0.00 96 1016.9
20260509100009 53 233 1.0 4.0 0.00 0.04 0.00 96 1016.9
20260509093047 53 149 0.0 3.0 0.00 0.04 0.00 95 1017.1
20260509090349 53 185 2.0 4.0 0.00 0.04 0.00 95 1017.2
20260509090039 53 183 2.0 4.0 0.00 0.04 0.00 95 1017.3
20260509083104 53 215 3.0 6.0 0.00 0.04 0.00 95 1017.5
20260509080339 53 246 2.0 4.0 0.00 0.04 0.00 95 1017.4
20260509080038 53 209 1.0 3.0 0.00 0.04 0.00 95 1017.4
20260509073038 52 203 2.0 4.0 0.00 0.04 0.00 95 1017.6
20260509070334 52 228 2.0 9.0 0.00 0.04 0.00 94 1017.6
20260509070010 52 215 3.0 9.0 0.00 0.04 0.00 94 1017.7
20260509063048 52 183 2.0 6.0 0.00 0.04 0.00 94 1017.9
20260509060350 52 209 2.0 7.0 0.00 0.04 0.00 94 1018.1
20260509060026 52 193 3.0 7.0 0.00 0.04 0.00 94 1018.1
20260509053023 52 128 2.0 6.0 0.00 0.04 0.00 94 1018.3
20260509050323 52 144 1.0 4.0 0.00 0.04 0.00 94 1018.6
20260509050015 52 211 1.0 4.0 0.00 0.04 0.00 94 1018.6
20260509043040 52 212 3.0 7.0 0.00 0.04 0.00 94 1018.8
20260509040334 52 172 3.0 8.0 0.00 0.04 0.00 94 1019.1
20260509040020 52 210 4.0 8.0 0.00 0.04 0.00 94 1019.1
20260509033015 52 202 2.0 10.0 0.00 0.04 0.04 94 1019.3
20260509030309 52 215 3.0 7.0 0.00 0.04 0.04 94 1019.6
20260509030052 52 232 4.0 7.0 0.00 0.04 0.04 94 1019.6
20260509023031 52 200 2.0 5.0 0.00 0.04 0.04 95 1019.7
20260509020333 52 198 1.0 7.0 0.01 0.04 0.04 95 1019.8
20260509020114 52 192 2.0 7.0 0.01 0.04 0.04 95 1019.9
20260509013026 52 177 2.0 4.0 0.04 0.04 0.04 95 1019.8
20260509010344 52 217 2.0 5.0 0.03 0.03 0.03 93 1019.8
20260509010019 53 217 2.0 5.0 0.03 0.03 0.03 93 1019.8
20260509003019 54 242 5.0 7.0 0.00 0.00 0.00 87 1019.7
20260509000311 55 230 3.0 7.0 0.00 0.00 0.00 81 1019.6
20260509000113 55 224 3.0 9.0 0.00 0.00 0.00 81 1019.6
20260509000031 55 224 3.0 9.0 0.00 0.00 0.00 81 1019.6
20260508233055 55 123 0.0 2.0 0.00 0.00 0.00 78 1019.4
20260508230332 56 119 1.0 3.0 0.00 0.00 0.00 76 1019.4
20260508230023 56 119 2.0 3.0 0.00 0.00 0.00 76 1019.3
20260508223020 56 355 1.0 3.0 0.00 0.00 0.00 75 1019.6
20260508220317 57 323 3.0 4.0 0.00 0.00 0.00 74 1019.8
20260508220055 57 284 0.0 4.0 0.00 0.00 0.00 74 1019.7
20260508220013 57 284 0.0 4.0 0.00 0.00 0.00 74 1019.7
20260508213038 57 340 3.0 8.0 0.00 0.00 0.00 75 1019.8
20260508210338 56 307 4.0 9.0 0.00 0.00 0.00 74 1019.9
20260508210057 56 339 3.0 7.0 0.00 0.00 0.00 75 1019.9
20260508210015 56 339 3.0 7.0 0.00 0.00 0.00 75 1019.9
20260508203121 58 304 6.0 13.0 0.00 0.00 0.00 72 1020.2
20260508200314 60 302 3.0 9.0 0.00 0.00 0.00 72 1020.2
20260508200031 60 343 4.0 9.0 0.00 0.00 0.00 71 1020.4
20260508193057 59 296 3.0 10.0 0.00 0.00 0.00 74 1020.6